Minot, ND

10:27 PM CDT on May 22, 2017 (GMT -0500)
Minot International

Weather History for KMOT - December, 2013

Change the Weather History Date:

Thursday, December 5, 2013

  Actual Average Record
Temperature  
Mean Temperature -5 °F 19 °F  
Max Temperature -1 °F 27 °F 60 °F (1913)
Min Temperature -9 °F 11 °F -20 °F (1922)
Degree Days  
Heating Degree Days 70 46  
Month to date heating degree days 276 228  
Since 1 July heating degree days 2331 2286  
Moisture  
Dew Point -11 °F    
Average Humidity 74    
Maximum Humidity 79    
Minimum Humidity 68    
Precipitation  
Precipitation T in 0.02 in 0.30 in (1926)
Month to date precipitation 0.11 0.07  
Year to date precipitation 24.92 16.88  
Sea Level Pressure  
Sea Level Pressure 30.18 in    
Wind  
Wind Speed 22 mph (West)    
Max Wind Speed 32 mph    
Max Gust Speed 38 mph    
Visibility 4 miles    
Events Snow    
T = Trace of Precipitation, MM = Missing Value Source: NWS Daily Summary

Daily Weather History Graph

Daily Weather History Graph

Search for Another Location

Airport or City:

Trip Planner

Search our weather history database for the weather conditions in past years. The results will help you decide how hot, cold, wet, or windy it might be!

Date:

Astronomy

Dec. 05, 2013 Rise Set
Actual Time 8:20 AM CST 4:51 PM CST
Civil Twilight 7:43 AM CST 5:27 PM CST
Nautical Twilight 7:04 AM CST 6:07 PM CST
Astronomical Twilight 6:26 AM CST 6:44 PM CST
Moon 10:35 AM CST (12/5) 8:22 PM CST (12/5)
Length of Visible Light 9h 43m
Length of Day
8h 31m
Waxing Crescent, 11% of the Moon is Illuminated
Dec 5
Waxing Crescent
Dec 9
First Quarter
Dec 17
Full
Dec 25
Last Quarter
Jan 1
New

Hourly Weather History & Observations

Time (CST) Temp. Windchill Dew Point Humidity Pressure Visibility Wind Dir Wind Speed Gust Speed Precip Events Conditions
12:05 AM -5.1 °F -30.5 °F -11.0 °F 76% 30.02 in 5.0 mi WNW 24.2 mph 32.2 mph 0.00 in Snow Light Snow
12:54 AM -4.0 °F -29.6 °F -9.9 °F 76% 30.15 in 6.0 mi WNW 25.3 mph - 0.00 in Snow Light Snow
1:16 AM -4.0 °F -30.0 °F -9.9 °F 76% 30.01 in 3.0 mi West 26.5 mph 34.5 mph 0.00 in Snow Light Snow
1:29 AM -5.1 °F -31.9 °F -11.0 °F 76% 30.01 in 2.5 mi West 27.6 mph 34.5 mph 0.00 in Snow Light Snow
1:38 AM -5.1 °F -32.7 °F -11.0 °F 76% 30.02 in 1.8 mi West 29.9 mph 36.8 mph 0.00 in Snow Light Snow
1:54 AM -5.1 °F -32.7 °F -11.0 °F 76% 30.16 in 1.5 mi West 29.9 mph 36.8 mph 0.00 in Snow Light Snow
2:28 AM -6.0 °F -33.5 °F -11.9 °F 75% 30.02 in 1.2 mi West 28.8 mph 38.0 mph 0.00 in Snow Light Snow
2:37 AM -6.0 °F -33.5 °F -11.0 °F 79% 30.03 in 1.5 mi West 28.8 mph 35.7 mph 0.00 in Snow Light Snow
2:54 AM -5.1 °F -30.5 °F -11.0 °F 76% 30.17 in 1.8 mi West 24.2 mph 34.5 mph 0.00 in Snow Light Snow
2:56 AM -6.0 °F -32.2 °F -11.0 °F 79% 30.03 in 2.0 mi West 25.3 mph 32.2 mph 0.00 in Snow Light Snow
3:07 AM -6.0 °F -33.9 °F -11.9 °F 75% 30.04 in 1.8 mi West 29.9 mph - 0.00 in Snow Light Snow
3:31 AM -6.0 °F -33.1 °F -11.9 °F 75% 30.03 in 1.8 mi West 27.6 mph 35.7 mph 0.00 in Snow Light Snow
3:38 AM -6.0 °F -32.2 °F -11.9 °F 75% 30.03 in 2.0 mi West 25.3 mph 35.7 mph 0.00 in Snow Light Snow
3:54 AM -6.0 °F -32.7 °F -11.9 °F 75% 30.17 in 1.8 mi West 26.5 mph 36.8 mph 0.00 in Snow Light Snow
4:05 AM -6.0 °F -32.7 °F -11.9 °F 75% 30.03 in 2.5 mi West 26.5 mph - 0.00 in Snow Light Snow
4:16 AM -6.0 °F -33.1 °F -11.9 °F 75% 30.03 in 3.0 mi West 27.6 mph 35.7 mph 0.00 in Snow Light Snow
4:52 AM -5.8 °F -32.4 °F -11.2 °F 77% 30.04 in 2.5 mi West 26.5 mph 33.4 mph 0.00 in Snow Light Snow
4:54 AM -6.0 °F -31.7 °F -11.9 °F 75% 30.18 in 3.0 mi West 24.2 mph 33.4 mph 0.00 in Snow Light Snow
5:07 AM -6.0 °F -32.2 °F -11.9 °F 75% 30.04 in 2.5 mi West 25.3 mph 33.4 mph 0.00 in Snow Light Snow
5:16 AM -6.0 °F -31.7 °F -11.9 °F 75% 30.04 in 4.0 mi West 24.2 mph 33.4 mph 0.00 in Snow Light Snow
5:54 AM -6.0 °F -30.7 °F -11.9 °F 75% 30.19 in 6.0 mi West 21.9 mph 32.2 mph 0.00 in   Haze
6:54 AM -6.0 °F -31.2 °F -13.0 °F 72% 30.20 in 7.0 mi West 23.0 mph - N/A   Overcast
7:54 AM -7.1 °F -33.2 °F -13.0 °F 75% 30.22 in 4.0 mi West 24.2 mph - 0.00 in   Haze
8:25 AM -7.1 °F -33.2 °F -14.1 °F 72% 30.07 in 2.5 mi West 24.2 mph - N/A   Haze
8:36 AM -7.1 °F -33.2 °F -14.1 °F 72% 30.07 in 3.0 mi West 24.2 mph 29.9 mph N/A   Haze
8:54 AM -7.1 °F -32.1 °F -14.1 °F 72% 30.24 in 4.0 mi West 21.9 mph - N/A   Haze
9:54 AM -6.0 °F -27.7 °F -13.0 °F 72% 30.27 in 8.0 mi West 16.1 mph 25.3 mph N/A   Overcast
10:22 AM -5.1 °F -31.0 °F -11.9 °F 72% 30.11 in 0.5 mi West 25.3 mph 28.8 mph 0.00 in Snow Snow
10:34 AM -5.1 °F -29.5 °F -13.0 °F 69% 30.11 in 2.5 mi West 21.9 mph 31.1 mph 0.00 in Snow Light Snow
10:42 AM -5.1 °F -30.0 °F -13.0 °F 69% 30.12 in 4.0 mi West 23.0 mph 31.1 mph 0.00 in Snow Light Snow
10:54 AM -5.1 °F -29.5 °F -11.9 °F 72% 30.28 in 4.0 mi West 21.9 mph 31.1 mph 0.00 in   Haze
11:38 AM -5.1 °F -28.4 °F -11.9 °F 72% 30.12 in 6.0 mi WNW 19.6 mph 28.8 mph 0.00 in   Haze
11:54 AM -4.0 °F -27.6 °F -11.0 °F 72% 30.28 in 3.0 mi WNW 20.7 mph - 0.00 in Snow Light Snow
12:29 PM -4.0 °F -25.8 °F -11.0 °F 72% 30.12 in 1.2 mi West 17.3 mph - 0.00 in Snow Light Snow
12:34 PM -4.0 °F -28.1 °F -11.0 °F 72% 30.13 in 4.0 mi West 21.9 mph - 0.00 in   Haze
12:54 PM -2.9 °F -25.6 °F -11.0 °F 68% 30.29 in 8.0 mi West 19.6 mph 25.3 mph 0.00 in   Overcast
1:54 PM -2.0 °F -25.0 °F -9.9 °F 69% 30.30 in 3.0 mi WNW 20.7 mph - N/A   Haze
2:03 PM -2.0 °F -25.0 °F -9.0 °F 72% 30.14 in 5.0 mi West 20.7 mph - N/A   Haze
2:13 PM -2.0 °F -25.5 °F -9.0 °F 72% 30.14 in 2.0 mi WNW 21.9 mph - 0.00 in Snow Light Snow
2:54 PM -0.9 °F -24.5 °F -8.0 °F 72% 30.31 in 2.0 mi West 23.0 mph 29.9 mph 0.00 in Snow Light Snow
3:01 PM -0.9 °F -25.0 °F -8.0 °F 72% 30.15 in 1.2 mi WNW 24.2 mph - 0.00 in Snow Light Snow
3:12 PM -0.9 °F -23.0 °F -8.0 °F 72% 30.16 in 1.5 mi West 19.6 mph - 0.00 in Snow Light Snow
3:54 PM -0.9 °F -23.5 °F -7.1 °F 75% 30.32 in 1.2 mi WNW 20.7 mph - 0.00 in Snow Light Snow
4:13 PM -0.9 °F -21.9 °F -7.1 °F 75% 30.18 in 2.5 mi WNW 17.3 mph 31.1 mph 0.00 in Snow Light Snow
4:20 PM -0.9 °F -22.4 °F -7.1 °F 75% 30.18 in 3.0 mi WNW 18.4 mph - 0.00 in   Haze
4:23 PM -0.9 °F -24.5 °F -7.1 °F 75% 30.18 in 2.5 mi WNW 23.0 mph 28.8 mph 0.00 in   Haze
4:34 PM -2.0 °F -24.4 °F -8.0 °F 76% 30.19 in 1.8 mi WNW 19.6 mph - 0.00 in Snow Light Snow
4:48 PM -2.2 °F -24.7 °F -9.4 °F 71% 30.19 in 2.0 mi WNW 19.6 mph 28.8 mph 0.00 in Snow Light Snow
4:54 PM -2.0 °F -24.4 °F -9.0 °F 72% 30.35 in 2.0 mi WNW 19.6 mph 28.8 mph 0.00 in Snow Light Snow
5:17 PM -2.9 °F -23.8 °F -9.9 °F 72% 30.20 in 5.0 mi WNW 16.1 mph 26.5 mph 0.00 in Snow Light Snow
5:54 PM -2.9 °F -23.8 °F -11.0 °F 68% 30.38 in 8.0 mi WNW 16.1 mph - 0.00 in   Overcast
6:33 PM -2.9 °F -26.1 °F -9.9 °F 72% 30.23 in 5.0 mi WNW 20.7 mph 27.6 mph 0.00 in   Haze
6:54 PM -4.0 °F -28.6 °F -11.0 °F 72% 30.40 in 4.0 mi WNW 23.0 mph 28.8 mph 0.00 in Snow Light Snow
7:29 PM -5.1 °F -30.0 °F -11.0 °F 76% 30.24 in 3.0 mi West 23.0 mph - 0.00 in   Haze
7:54 PM -6.0 °F -30.2 °F -11.9 °F 75% 30.42 in 4.0 mi West 20.7 mph - 0.00 in   Haze
8:45 PM -7.1 °F -30.4 °F -14.1 °F 72% 30.27 in 8.0 mi West 18.4 mph - N/A   Overcast
8:54 PM -7.1 °F -29.8 °F -14.1 °F 72% 30.45 in 10.0 mi West 17.3 mph - N/A   Overcast
9:54 PM -9.0 °F -33.0 °F -15.0 °F 75% 30.45 in 9.0 mi West 18.4 mph - N/A   Overcast
10:03 PM -9.0 °F -33.0 °F -16.1 °F 71% 30.29 in 9.0 mi West 18.4 mph - N/A   Overcast
10:54 PM -9.0 °F -32.4 °F -16.1 °F 71% 30.47 in 9.0 mi West 17.3 mph - N/A   Overcast
11:35 PM -9.0 °F -32.4 °F -16.1 °F 71% 30.31 in 10.0 mi West 17.3 mph - N/A   Scattered Clouds
11:54 PM -9.0 °F -33.6 °F -17.0 °F 68% 30.48 in 10.0 mi West 19.6 mph - N/A   Clear